Weather History for KPHL - July, 2014

Change the Weather History Date:

Monday, July 28, 2014

  Actual Average Record
Temperature  
Mean Temperature 77 °F 78 °F  
Max Temperature 84 °F 87 °F 100 °F (1941)
Min Temperature 69 °F 70 °F 53 °F (1962)
Degree Days  
Heating Degree Days 0 0  
Month to date heating degree days 0 0  
Since 1 June heating degree days 0 11  
Since 1 July heating degree days 0 0  
Cooling Degree Days 12 13  
Month to date cooling degree days 390 361  
Year to date cooling degree days 765 710  
Since 1 June cooling degree days 682 619  
Growing Degree Days 26 (Base 50)    
Moisture  
Dew Point 65 °F    
Average Humidity 68    
Maximum Humidity 93    
Minimum Humidity 43    
Precipitation  
Precipitation 0.23 in 0.14 in 8.02 in (2013)
Month to date precipitation 4.30 3.93  
Year to date precipitation 32.26 24.10  
Snow  
Snow 0.00 in 0.00 in 0.00 in (1870)
Month to date snowfall 0.0 0.0  
Since 1 June snowfall 0.0 0.0  
Since 1 July snowfall 0.0 0.0  
Snow Depth 0.00 in    
Sea Level Pressure  
Sea Level Pressure 29.63 in    
Wind  
Wind Speed 14 mph (WSW)    
Max Wind Speed 26 mph    
Max Gust Speed 34 mph    
Visibility 8 miles    
Events Rain , Thunderstorm    
T = Trace of Precipitation, MM = Missing Value Source: NWS Daily Summary

Daily Weather History Graph

Daily Weather History Graph

Search for Another Location

Airport or City:

Trip Planner

Search our weather history database for the weather conditions in past years. The results will help you decide how hot, cold, wet, or windy it might be!

Date:

Astronomy

Jul. 28, 2014 Rise Set
Actual Time 5:55 AM EDT 8:18 PM EDT
Civil Twilight 5:25 AM EDT 8:48 PM EDT
Nautical Twilight 4:47 AM EDT 9:26 PM EDT
Astronomical Twilight 4:05 AM EDT 10:08 PM EDT
Moon 7:35 AM EDT (7/28) 8:59 PM EDT (7/28)
Length of Visible Light 15h 23m
Length of Day
14h 22m
Waxing Crescent, 3% of the Moon is Illuminated
Jul 28
Waxing Crescent
Aug 3
First Quarter
Aug 10
Full
Aug 17
Last Quarter
Aug 25
New

Hourly Weather History & Observations

Time (EDT) Temp. Heat Index Dew Point Humidity Pressure Visibility Wind Dir Wind Speed Gust Speed Precip Events Conditions
12:01 AM 73.9 °F - 68.0 °F 82% 29.67 in 3.0 mi North 11.5 mph 18.4 mph 0.00 in Rain , Thunderstorm Heavy Thunderstorms and Rain
12:03 AM 73.9 °F - 68.0 °F 82% 29.67 in 2.5 mi NNW 10.4 mph 18.4 mph 0.01 in Rain , Thunderstorm Heavy Thunderstorms and Rain
12:06 AM 73.0 °F - 68.0 °F 84% 29.67 in 1.5 mi NNW 9.2 mph - 0.01 in Rain , Thunderstorm Heavy Thunderstorms and Rain
12:34 AM 71.1 °F - 69.1 °F 93% 29.63 in 2.0 mi Variable 3.5 mph - 0.78 in Rain , Thunderstorm Heavy Thunderstorms and Rain
12:38 AM 70.0 °F - 68.0 °F 93% 29.64 in 4.0 mi SSE 8.1 mph - 0.88 in Rain , Thunderstorm Thunderstorms and Rain
12:46 AM 71.1 °F - 68.0 °F 90% 29.66 in 5.0 mi SSE 10.4 mph 18.4 mph 0.98 in Rain , Thunderstorm Thunderstorms and Rain
12:54 AM 71.1 °F - 69.1 °F 93% 29.64 in 5.0 mi South 5.8 mph - 1.12 in Rain , Thunderstorm Thunderstorms and Rain
1:06 AM 70.0 °F - 66.9 °F 90% 29.64 in 7.0 mi South 17.3 mph 20.7 mph 0.22 in Rain , Thunderstorm Thunderstorms and Rain
1:21 AM 71.1 °F - 68.0 °F 90% 29.63 in 5.0 mi SSW 10.4 mph - 0.23 in Rain , Thunderstorm Thunderstorms and Rain
1:38 AM 72.0 °F - 68.0 °F 87% 29.63 in 4.0 mi SW 12.7 mph - 0.28 in Rain , Thunderstorm Heavy Thunderstorms and Rain
1:43 AM 72.0 °F - 68.0 °F 87% 29.63 in 6.0 mi SSW 11.5 mph - 0.30 in Rain , Thunderstorm Thunderstorms and Rain
1:47 AM 72.0 °F - 68.0 °F 87% 29.63 in 8.0 mi SSW 10.4 mph - 0.30 in Rain , Thunderstorm Thunderstorms and Rain
1:54 AM 71.1 °F - 68.0 °F 90% 29.62 in 8.0 mi SSW 8.1 mph - 0.31 in Rain , Thunderstorm Thunderstorms and Rain
2:06 AM 71.1 °F - 66.9 °F 87% 29.63 in 7.0 mi South 10.4 mph - 0.01 in Rain , Thunderstorm Light Thunderstorms and Rain
2:16 AM 70.0 °F - 66.0 °F 87% 29.62 in 9.0 mi South 4.6 mph - 0.03 in Rain Light Rain
2:45 AM 70.0 °F - 66.0 °F 87% 29.59 in 10.0 mi SE 5.8 mph - 0.05 in   Overcast
2:54 AM 70.0 °F - 66.0 °F 87% 29.58 in 10.0 mi East 5.8 mph - 0.05 in   Overcast
3:54 AM 70.0 °F - 66.0 °F 87% 29.59 in 10.0 mi South 8.1 mph - 0.00 in   Mostly Cloudy
4:54 AM 70.0 °F - 66.0 °F 87% 29.56 in 10.0 mi South 5.8 mph - N/A   Mostly Cloudy
5:54 AM 70.0 °F - 66.0 °F 87% 29.56 in 10.0 mi SSW 5.8 mph - N/A   Mostly Cloudy
6:48 AM 71.6 °F - 66.2 °F 83% 29.56 in 10.0 mi SSW 6.9 mph - N/A   Mostly Cloudy
6:54 AM 71.1 °F - 66.9 °F 87% 29.56 in 10.0 mi SW 6.9 mph - N/A   Mostly Cloudy
7:54 AM 73.0 °F - 69.1 °F 87% 29.58 in 10.0 mi WSW 10.4 mph - N/A   Mostly Cloudy
8:54 AM 75.9 °F - 66.9 °F 74% 29.59 in 10.0 mi West 13.8 mph - N/A   Scattered Clouds
9:54 AM 78.1 °F - 66.9 °F 68% 29.60 in 10.0 mi West 15.0 mph - N/A   Scattered Clouds
10:54 AM 79.0 °F - 64.9 °F 62% 29.60 in 10.0 mi WNW 13.8 mph - N/A   Scattered Clouds
11:54 AM 78.1 °F - 64.0 °F 62% 29.60 in 10.0 mi WNW 10.4 mph - 0.00 in   Mostly Cloudy
12:54 PM 81.0 °F 81.7 °F 61.0 °F 50% 29.60 in 10.0 mi West 25.3 mph 34.5 mph 0.00 in   Scattered Clouds
1:54 PM 82.9 °F 83.2 °F 60.1 °F 46% 29.60 in 10.0 mi West 20.7 mph 28.8 mph N/A   Scattered Clouds
2:54 PM 82.9 °F 82.8 °F 59.0 °F 44% 29.60 in 10.0 mi WSW 26.5 mph - N/A   Mostly Cloudy
3:54 PM 82.9 °F 82.8 °F 59.0 °F 44% 29.60 in 10.0 mi WSW 21.9 mph 29.9 mph N/A   Mostly Cloudy
4:54 PM 82.9 °F 82.6 °F 57.9 °F 42% 29.62 in 10.0 mi West 18.4 mph - N/A   Mostly Cloudy
5:54 PM 82.0 °F 82.0 °F 57.9 °F 44% 29.63 in 10.0 mi West 18.4 mph 26.5 mph N/A   Scattered Clouds
6:54 PM 82.0 °F 81.7 °F 57.0 °F 42% 29.65 in 10.0 mi West 17.3 mph 29.9 mph N/A   Scattered Clouds
7:54 PM 78.1 °F - 59.0 °F 52% 29.68 in 10.0 mi NW 19.6 mph 29.9 mph 0.00 in Rain Light Rain
8:54 PM 73.9 °F - 57.9 °F 57% 29.71 in 10.0 mi NW 13.8 mph - 0.00 in   Mostly Cloudy
9:54 PM 73.0 °F - 59.0 °F 61% 29.75 in 10.0 mi NW 11.5 mph - N/A   Mostly Cloudy
10:54 PM 72.0 °F - 59.0 °F 64% 29.76 in 10.0 mi NW 10.4 mph - N/A   Mostly Cloudy
11:54 PM 71.1 °F - 59.0 °F 66% 29.77 in 10.0 mi NW 11.5 mph - N/A   Mostly Cloudy